Mason, MI

6:20 AM EDT on March 28, 2017 (GMT -0400)
Mason Jewett

Weather History for KTEW - March, 2014

Change the Weather History Date:

Saturday, March 22, 2014

  Actual Average (KLAN) Record (KLAN)
Temperature  
Mean Temperature 31 °F -  
Max Temperature 37 °F 44 °F 83 °F (2012)
Min Temperature 25 °F 24 °F -10 °F (1864)
Degree Days  
Heating Degree Days 34    
Moisture  
Dew Point 28 °F    
Average Humidity 80    
Maximum Humidity 97    
Minimum Humidity 62    
Precipitation  
Precipitation 0.00 in - - ()
Sea Level Pressure  
Sea Level Pressure 29.99 in    
Wind  
Wind Speed 8 mph (WNW)    
Max Wind Speed 17 mph    
Max Gust Speed 29 mph    
Visibility 8 miles    
Events Rain , Snow    
Averages and records for this station are not official NWS values.
T = Trace of Precipitation, MM = Missing Value Source: NWS Daily Summary

Daily Weather History Graph

Daily Weather History Graph

Search for Another Location

Airport or City:

Trip Planner

Search our weather history database for the weather conditions in past years. The results will help you decide how hot, cold, wet, or windy it might be!

Date:

Astronomy

Mar. 22, 2014 Rise Set
Actual Time 7:37 AM EDT 7:52 PM EDT
Civil Twilight 7:09 AM EDT 8:20 PM EDT
Nautical Twilight 6:36 AM EDT 8:53 PM EDT
Astronomical Twilight 6:02 AM EDT 9:27 PM EDT
Moon 1:16 AM EDT (3/22) 11:13 AM EDT (3/22)
Length of Visible Light 13h 11m
Length of Day
12h 14m
Waning Gibbous, 65% of the Moon is Illuminated
Mar 22
Waning Gibbous
Mar 23
Last Quarter
Mar 30
New
Apr 7
First Quarter
Apr 15
Full

Hourly Weather History & Observations

Time (EDT) Temp. Windchill Dew Point Humidity Pressure Visibility Wind Dir Wind Speed Gust Speed Precip Events Conditions
12:14 AM 34.7 °F - 33.1 °F 94% 29.74 in 2.0 mi Calm Calm - N/A Snow Light Snow
12:35 AM 34.3 °F - 32.9 °F 94% 29.73 in 1.8 mi Calm Calm - N/A   Overcast
12:54 AM 33.8 °F 30.8 °F 32.9 °F 96% 29.71 in 1.2 mi SE 3.5 mph - N/A   Overcast
1:14 AM 33.8 °F 27.7 °F 32.9 °F 96% 29.69 in 1.5 mi SSE 6.9 mph - N/A   Overcast
1:34 AM 34.0 °F 28.0 °F 33.3 °F 97% 29.67 in 2.5 mi SSE 6.9 mph - N/A Rain Light Rain
1:54 AM 34.2 °F 29.0 °F 33.4 °F 97% 29.67 in 3.0 mi South 5.8 mph - N/A   Overcast
2:14 AM 34.0 °F 31.0 °F 33.3 °F 97% 29.67 in 2.5 mi South 3.5 mph - N/A   Overcast
2:34 AM 33.8 °F 30.8 °F 33.1 °F 97% 29.68 in 2.5 mi SSW 3.5 mph - N/A   Overcast
2:54 AM 34.5 °F 30.4 °F 33.8 °F 97% 29.69 in 3.0 mi SW 4.6 mph - N/A   Mostly Cloudy
3:13 AM 35.1 °F 29.3 °F 34.3 °F 97% 29.70 in 3.0 mi WSW 6.9 mph - N/A   Overcast
3:34 AM 36.0 °F 28.0 °F 35.1 °F 97% 29.71 in 4.0 mi West 11.5 mph - N/A   Overcast
3:54 AM 37.0 °F 27.7 °F 36.0 °F 96% 29.73 in 4.0 mi West 16.1 mph - N/A   Overcast
4:13 AM 37.0 °F 27.4 °F 35.8 °F 95% 29.75 in 3.0 mi WNW 17.3 mph 21.9 mph N/A   Overcast
4:34 AM 36.9 °F 27.8 °F 35.6 °F 95% 29.77 in 3.0 mi WNW 15.0 mph 21.9 mph N/A   Overcast
4:54 AM 36.5 °F 27.0 °F 34.7 °F 93% 29.79 in 4.0 mi WNW 16.1 mph 21.9 mph N/A   Overcast
5:14 AM 36.0 °F 26.3 °F 34.0 °F 93% 29.81 in 5.0 mi WNW 16.1 mph 24.2 mph N/A   Overcast
5:34 AM 35.6 °F 26.2 °F 32.9 °F 90% 29.83 in 5.0 mi NW 15.0 mph 28.8 mph N/A   Overcast
5:54 AM 34.9 °F 26.2 °F 32.5 °F 91% 29.84 in 5.0 mi NW 12.7 mph 18.4 mph N/A   Overcast
6:14 AM 34.7 °F 26.9 °F 32.0 °F 90% 29.86 in 5.0 mi NW 10.4 mph 20.7 mph N/A   Overcast
6:34 AM 33.8 °F 27.0 °F 31.8 °F 92% 29.87 in 5.0 mi WNW 8.1 mph - N/A   Mostly Cloudy
6:54 AM 33.4 °F 28.1 °F 31.6 °F 93% 29.89 in 5.0 mi NW 5.8 mph - N/A   Mostly Cloudy
7:14 AM 33.8 °F 26.4 °F 31.6 °F 92% 29.90 in 7.0 mi NW 9.2 mph - N/A   Overcast
7:34 AM 33.8 °F 27.0 °F 31.1 °F 90% 29.91 in 7.0 mi NW 8.1 mph - N/A   Overcast
7:54 AM 33.8 °F 25.3 °F 30.4 °F 87% 29.93 in 7.0 mi NW 11.5 mph 16.1 mph N/A   Overcast
8:14 AM 33.4 °F 24.8 °F 29.7 °F 86% 29.94 in 10.0 mi NW 11.5 mph 20.7 mph N/A   Overcast
8:34 AM 33.3 °F 23.2 °F 28.9 °F 84% 29.95 in 10.0 mi NW 15.0 mph 21.9 mph N/A   Overcast
8:54 AM 33.1 °F 26.1 °F 29.5 °F 87% 29.96 in 10.0 mi NW 8.1 mph - N/A   Overcast
9:14 AM 33.3 °F 26.4 °F 29.3 °F 85% 29.97 in 10.0 mi WNW 8.1 mph - N/A   Overcast
9:34 AM 33.3 °F 25.1 °F 29.1 °F 85% 29.98 in 10.0 mi NW 10.4 mph - N/A   Overcast
9:54 AM 33.3 °F 25.1 °F 28.2 °F 82% 30.00 in 10.0 mi WNW 10.4 mph - N/A   Overcast
10:14 AM 33.8 °F 25.8 °F 28.4 °F 81% 30.01 in 10.0 mi NW 10.4 mph - N/A   Overcast
10:34 AM 33.8 °F 27.0 °F 28.0 °F 79% 30.02 in 10.0 mi NW 8.1 mph - N/A   Overcast
10:54 AM 34.7 °F 28.8 °F 28.9 °F 79% 30.03 in 10.0 mi NW 6.9 mph - N/A   Overcast
11:14 AM 34.7 °F 28.1 °F 27.5 °F 75% 30.04 in 10.0 mi WNW 8.1 mph - N/A   Overcast
11:34 AM 34.9 °F 28.3 °F 27.9 °F 76% 30.05 in 10.0 mi WNW 8.1 mph - N/A   Overcast
11:54 AM 35.8 °F 30.1 °F 28.0 °F 73% 30.05 in 10.0 mi WNW 6.9 mph - N/A   Overcast
12:14 PM 36.3 °F 30.8 °F 27.7 °F 71% 30.06 in 10.0 mi West 6.9 mph - N/A   Overcast
12:34 PM 36.3 °F 29.5 °F 27.3 °F 70% 30.07 in 10.0 mi West 9.2 mph - N/A   Overcast
12:54 PM 35.6 °F 27.1 °F 27.7 °F 73% 30.08 in 10.0 mi WNW 12.7 mph 18.4 mph N/A   Overcast
1:14 PM 35.6 °F 27.5 °F 28.2 °F 75% 30.08 in 10.0 mi WNW 11.5 mph - N/A   Overcast
1:34 PM 36.5 °F 28.2 °F 27.7 °F 70% 30.08 in 10.0 mi West 12.7 mph - N/A   Overcast
1:54 PM 37.4 °F 30.8 °F 27.0 °F 66% 30.08 in 10.0 mi West 9.2 mph - N/A   Overcast
2:15 PM 37.8 °F 30.2 °F 26.8 °F 65% 30.08 in 10.0 mi West 11.5 mph - N/A   Overcast
2:34 PM 37.6 °F 30.0 °F 27.1 °F 66% 30.08 in 10.0 mi WNW 11.5 mph - N/A   Overcast
2:54 PM 37.8 °F 28.6 °F 27.1 °F 66% 30.08 in 10.0 mi West 16.1 mph - N/A   Overcast
3:15 PM 37.4 °F 30.3 °F 27.7 °F 68% 30.08 in 10.0 mi WNW 10.4 mph 16.1 mph N/A   Overcast
3:34 PM 37.9 °F 31.5 °F 27.9 °F 67% 30.08 in 10.0 mi WNW 9.2 mph - N/A   Overcast
3:54 PM 37.9 °F 30.0 °F 27.5 °F 66% 30.08 in 10.0 mi WNW 12.7 mph - N/A   Overcast
4:15 PM 37.4 °F 29.3 °F 27.3 °F 67% 30.08 in 10.0 mi WNW 12.7 mph 17.3 mph N/A   Overcast
4:34 PM 37.6 °F 29.6 °F 27.1 °F 66% 30.08 in 10.0 mi West 12.7 mph 16.1 mph N/A   Overcast
4:55 PM 37.0 °F 29.8 °F 27.5 °F 68% 30.08 in 10.0 mi WNW 10.4 mph - N/A   Overcast
5:14 PM 36.7 °F 29.9 °F 27.5 °F 69% 30.08 in 10.0 mi WNW 9.2 mph - N/A   Overcast
5:34 PM 34.9 °F 25.7 °F 29.1 °F 79% 30.10 in 10.0 mi West 13.8 mph 20.7 mph N/A   Overcast
5:55 PM 34.7 °F 25.9 °F 29.7 °F 82% 30.11 in 10.0 mi WNW 12.7 mph 17.3 mph N/A   Overcast
6:14 PM 34.7 °F 26.4 °F 29.3 °F 81% 30.11 in 10.0 mi WNW 11.5 mph - N/A   Overcast
6:34 PM 33.8 °F 24.8 °F 28.4 °F 81% 30.11 in 10.0 mi NNW 12.7 mph - N/A   Overcast
6:55 PM 33.3 °F 25.1 °F 27.3 °F 79% 30.13 in 10.0 mi NW 10.4 mph 17.3 mph N/A   Overcast
7:14 PM 32.9 °F 24.7 °F 25.2 °F 73% 30.13 in 10.0 mi NW 10.4 mph 17.3 mph N/A   Overcast
7:34 PM 32.4 °F 25.3 °F 23.9 °F 71% 30.14 in 10.0 mi WNW 8.1 mph - N/A   Overcast
7:55 PM 32.0 °F 24.2 °F 24.8 °F 75% 30.14 in 10.0 mi NNW 9.2 mph - N/A   Overcast
8:14 PM 32.0 °F 23.6 °F 23.0 °F 69% 30.15 in 10.0 mi NW 10.4 mph - N/A   Overcast
8:34 PM 31.8 °F 21.4 °F 22.5 °F 68% 30.16 in 10.0 mi NNW 15.0 mph 18.4 mph N/A   Overcast
8:55 PM 31.1 °F 22.4 °F 21.2 °F 67% 30.16 in 10.0 mi NW 10.4 mph - N/A   Overcast
9:14 PM 30.0 °F 20.0 °F 20.3 °F 67% 30.18 in 10.0 mi NW 12.7 mph 20.7 mph N/A   Overcast
9:34 PM 29.1 °F 17.5 °F 19.0 °F 66% 30.19 in 10.0 mi NW 16.1 mph 24.2 mph N/A   Mostly Cloudy
9:55 PM 28.8 °F 19.5 °F 18.9 °F 67% 30.19 in 10.0 mi NW 10.4 mph - N/A   Mostly Cloudy
10:14 PM 28.2 °F 18.3 °F 18.1 °F 66% 30.20 in 10.0 mi NW 11.5 mph 18.4 mph N/A   Overcast
10:34 PM 27.3 °F 17.1 °F 17.8 °F 67% 30.21 in 10.0 mi NW 11.5 mph 19.6 mph N/A   Scattered Clouds
10:54 PM 26.6 °F 16.8 °F 16.7 °F 66% 30.21 in 10.0 mi NW 10.4 mph - N/A   Clear
11:14 PM 26.2 °F 14.2 °F 16.2 °F 66% 30.22 in 10.0 mi NW 15.0 mph 19.6 mph N/A   Scattered Clouds
11:35 PM 25.7 °F 15.1 °F 14.2 °F 62% 30.23 in 10.0 mi NNW 11.5 mph 19.6 mph N/A   Clear
11:54 PM 25.2 °F 14.4 °F 14.9 °F 65% 30.23 in 10.0 mi NNW 11.5 mph 19.6 mph N/A   Clear